Location: Unspecified
(0.0000°N, 0.0000°E)
Time: 12:28:50
(UTC+00:00)

Vanguard 1 Rocket - Pass Details

Date: 09 December 2017
Orbit: 656 x 4222 km, 34.3° (Epoch: 21 January)

Event Time Altitude Azimuth Distance (km) Brightness Sun altitude
Rises 20:13:33 0° 314° (NW) 6,167 11.9 -32.1°
Reaches altitude 10° 20:19:36 10° 332° (NNW) 5,802 11.5 -33.4°
Enters shadow 20:31:22 19° 10° (N) 6,015 11.2 -36.0°
